| time (UTC) | temp F | wind direction | speed MPH | gust MPH | rain 1hr in | rain 24hr in | rain mn in | humidity % | barometer mb |
| 20260901063107 | 56 | 208 | 11.0 | 20.0 | 0.00 | 0.00 | 0.00 | 86 | 1011.9 |
| 20260901061600 | 56 | 223 | 8.0 | 18.0 | 0.00 | 0.00 | 0.00 | 86 | 1012.1 |
| 20260901060059 | 56 | 268 | 8.0 | 23.0 | 0.00 | 0.00 | 0.00 | 85 | 1012.1 |
| 20260901054552 | 55 | 229 | 9.0 | 20.0 | 0.00 | 0.00 | 0.00 | 86 | 1012.1 |
| 20260901053115 | 55 | 232 | 7.0 | 18.0 | 0.00 | 0.00 | 0.00 | 87 | 1012.2 |
| 20260901051542 | 55 | 211 | 8.0 | 21.0 | 0.00 | 0.00 | 0.00 | 87 | 1012.3 |
| 20260901050036 | 55 | 208 | 8.0 | 19.0 | 0.00 | 0.00 | 0.00 | 87 | 1012.4 |
| 20260901044530 | 55 | 282 | 9.0 | 22.0 | 0.00 | 0.00 | 0.00 | 87 | 1012.4 |
| 20260901043012 | 55 | 265 | 8.0 | 20.0 | 0.00 | 0.00 | 0.00 | 87 | 1012.4 |
| 20260901041517 | 55 | 187 | 10.0 | 17.0 | 0.00 | 0.00 | 0.00 | 87 | 1012.6 |
| 20260901040139 | 55 | 218 | 8.0 | 17.0 | 0.00 | 0.00 | 0.00 | 87 | 1012.5 |
| 20260901034507 | 55 | 237 | 10.0 | 20.0 | 0.00 | 0.00 | 0.00 | 87 | 1012.5 |
| 20260901033142 | 55 | 213 | 9.0 | 22.0 | 0.00 | 0.00 | 0.00 | 86 | 1012.7 |
| 20260901031501 | 55 | 200 | 9.0 | 20.0 | 0.00 | 0.00 | 0.00 | 86 | 1012.7 |
| 20260901030134 | 55 | 209 | 9.0 | 23.0 | 0.00 | 0.00 | 0.00 | 86 | 1012.9 |
| 20260901024511 | 54 | 203 | 10.0 | 18.0 | 0.00 | 0.00 | 0.00 | 87 | 1013.0 |
| 20260901023134 | 54 | 185 | 7.0 | 15.0 | 0.00 | 0.00 | 0.00 | 87 | 1013.0 |
| 20260901021523 | 53 | 238 | 5.0 | 11.0 | 0.00 | 0.00 | 0.00 | 87 | 1013.1 |
| 20260901020051 | 54 | 233 | 7.0 | 15.0 | 0.00 | 0.00 | 0.00 | 85 | 1013.2 |
| 20260901014548 | 54 | 213 | 9.0 | 19.0 | 0.00 | 0.00 | 0.00 | 85 | 1013.3 |
| 20260901013048 | 54 | 228 | 7.0 | 18.0 | 0.00 | 0.00 | 0.00 | 84 | 1013.4 |
| 20260901011539 | 55 | 221 | 9.0 | 18.0 | 0.00 | 0.00 | 0.00 | 84 | 1013.5 |
| 20260901010053 | 54 | 215 | 8.0 | 15.0 | 0.00 | 0.00 | 0.00 | 84 | 1013.5 |
| 20260901004605 | 54 | 273 | 6.0 | 14.0 | 0.00 | 0.00 | 0.00 | 85 | 1013.5 |
| 20260901003135 | 54 | 240 | 7.0 | 16.0 | 0.00 | 0.00 | 0.00 | 85 | 1013.6 |
| 20260901001532 | 54 | 232 | 7.0 | 15.0 | 0.00 | 0.00 | 0.00 | 85 | 1013.7 |
| 20260901000008 | 53 | 216 | 6.0 | 15.0 | 0.00 | 0.00 | 0.00 | 86 | 1013.8 |
| 20260831234521 | 53 | 273 | 4.0 | 10.0 | 0.00 | 0.00 | 0.00 | 86 | 1013.9 |
| 20260831233002 | 53 | 259 | 4.0 | 16.0 | 0.00 | 0.00 | 0.00 | 85 | 1014.0 |
| 20260831231515 | 52 | 229 | 5.0 | 10.0 | 0.00 | 0.00 | 0.00 | 86 | 1014.1 |
| 20260831230129 | 52 | 276 | 6.0 | 14.0 | 0.00 | 0.00 | 0.00 | 86 | 1014.1 |
| 20260831224500 | 52 | 236 | 4.0 | 11.0 | 0.00 | 0.00 | 0.00 | 86 | 1014.1 |
| 20260831223121 | 52 | 325 | 5.0 | 12.0 | 0.00 | 0.00 | 0.00 | 86 | 1014.1 |
| 20260831221605 | 53 | 263 | 5.0 | 11.0 | 0.00 | 0.00 | 0.00 | 84 | 1014.1 |
| 20260831220120 | 53 | 329 | 5.0 | 13.0 | 0.00 | 0.00 | 0.00 | 84 | 1014.1 |
| 20260831214600 | 53 | 243 | 6.0 | 16.0 | 0.00 | 0.00 | 0.00 | 83 | 1014.1 |
| 20260831213114 | 54 | 229 | 5.0 | 14.0 | 0.00 | 0.00 | 0.00 | 81 | 1014.0 |
| 20260831211606 | 54 | 256 | 6.0 | 16.0 | 0.00 | 0.00 | 0.00 | 79 | 1013.9 |
| 20260831210133 | 54 | 307 | 5.0 | 13.0 | 0.00 | 0.00 | 0.00 | 78 | 1013.7 |
| 20260831204600 | 54 | 232 | 5.0 | 14.0 | 0.00 | 0.00 | 0.00 | 78 | 1013.6 |
| 20260831203138 | 54 | 263 | 6.0 | 16.0 | 0.00 | 0.00 | 0.00 | 77 | 1013.4 |
| 20260831201525 | 55 | 264 | 6.0 | 14.0 | 0.00 | 0.00 | 0.00 | 77 | 1013.3 |
| 20260831200052 | 55 | 313 | 5.0 | 16.0 | 0.00 | 0.00 | 0.00 | 77 | 1013.2 |
| 20260831194600 | 55 | 274 | 7.0 | 14.0 | 0.00 | 0.00 | 0.00 | 77 | 1013.0 |
| 20260831193056 | 55 | 263 | 7.0 | 15.0 | 0.00 | 0.00 | 0.00 | 77 | 1012.8 |
| 20260831191603 | 55 | 248 | 6.0 | 15.0 | 0.00 | 0.00 | 0.00 | 77 | 1012.6 |
| 20260831190133 | 56 | 252 | 6.0 | 13.0 | 0.00 | 0.00 | 0.00 | 76 | 1012.2 |
| 20260831184522 | 56 | 322 | 6.0 | 12.0 | 0.00 | 0.00 | 0.00 | 76 | 1012.2 |
| 20260831183049 | 56 | 272 | 4.0 | 14.0 | 0.00 | 0.00 | 0.00 | 76 | 1012.1 |
| 20260831181547 | 56 | 240 | 5.0 | 13.0 | 0.00 | 0.00 | 0.00 | 77 | 1011.8 |
| 20260831180046 | 57 | 229 | 6.0 | 15.0 | 0.00 | 0.00 | 0.00 | 77 | 1011.7 |
| 20260831174539 | 58 | 327 | 4.0 | 14.0 | 0.00 | 0.00 | 0.00 | 76 | 1011.6 |
| 20260831173050 | 58 | 291 | 4.0 | 10.0 | 0.00 | 0.00 | 0.00 | 76 | 1011.3 |
| 20260831171548 | 59 | 292 | 7.0 | 15.0 | 0.00 | 0.00 | 0.00 | 74 | 1011.3 |
| 20260831164608 | 60 | 312 | 7.0 | 16.0 | 0.00 | 0.02 | 0.00 | 74 | 1011.0 |
| 20260831163113 | 62 | 237 | 7.0 | 17.0 | 0.00 | 0.02 | 0.00 | 72 | 1010.7 |
| 20260831161554 | 62 | 288 | 8.0 | 17.0 | 0.00 | 0.02 | 0.00 | 71 | 1010.5 |
| 20260831160104 | 62 | 264 | 6.0 | 17.0 | 0.00 | 0.02 | 0.00 | 71 | 1010.3 |
| 20260831154538 | 63 | 233 | 8.0 | 18.0 | 0.00 | 0.23 | 0.00 | 70 | 1010.1 |
| 20260831153045 | 64 | 225 | 5.0 | 17.0 | 0.00 | 0.23 | 0.00 | 70 | 1009.9 |
| 20260831151546 | 65 | 243 | 6.0 | 15.0 | 0.00 | 0.23 | 0.00 | 70 | 1009.8 |
| 20260831150058 | 65 | 263 | 4.0 | 15.0 | 0.00 | 0.23 | 0.00 | 73 | 1009.4 |
| 20260831144547 | 65 | 180 | 8.0 | 16.0 | 0.00 | 0.23 | 0.00 | 71 | 1009.3 |
| 20260831143104 | 63 | 220 | 6.0 | 17.0 | 0.00 | 0.23 | 0.00 | 75 | 1009.0 |
| 20260831141558 | 64 | 236 | 6.0 | 18.0 | 0.00 | 0.23 | 0.00 | 73 | 1009.0 |
| 20260831140107 | 64 | 238 | 5.0 | 14.0 | 0.00 | 0.23 | 0.00 | 75 | 1008.7 |
| 20260831134552 | 65 | 280 | 6.0 | 19.0 | 0.00 | 0.23 | 0.00 | 71 | 1008.6 |
| 20260831133112 | 66 | 227 | 7.0 | 16.0 | 0.00 | 0.23 | 0.00 | 71 | 1008.5 |
| 20260831131550 | 65 | 259 | 3.0 | 12.0 | 0.00 | 0.23 | 0.00 | 75 | 1008.3 |
| 20260831130057 | 64 | 294 | 3.0 | 11.0 | 0.00 | 0.23 | 0.00 | 76 | 1008.3 |
| 20260831124600 | 64 | 246 | 4.0 | 10.0 | 0.00 | 0.23 | 0.00 | 76 | 1008.2 |
| 20260831123114 | 63 | 236 | 4.0 | 15.0 | 0.00 | 0.23 | 0.00 | 76 | 1008.0 |
| 20260831121510 | 64 | 299 | 7.0 | 15.0 | 0.00 | 0.23 | 0.00 | 74 | 1008.0 |
| 20260831120106 | 64 | 265 | 6.0 | 16.0 | 0.00 | 0.23 | 0.00 | 76 | 1007.8 |
| 20260831114539 | 64 | 292 | 7.0 | 14.0 | 0.00 | 0.30 | 0.00 | 74 | 1007.7 |
| 20260831113037 | 63 | 272 | 6.0 | 12.0 | 0.00 | 0.30 | 0.00 | 78 | 1007.3 |
| 20260831111516 | 64 | 222 | 6.0 | 12.0 | 0.00 | 0.30 | 0.00 | 76 | 1007.2 |
| 20260831110133 | 64 | 325 | 5.0 | 14.0 | 0.00 | 0.30 | 0.00 | 78 | 1007.1 |
| 20260831104607 | 62 | 236 | 4.0 | 12.0 | 0.00 | 0.30 | 0.00 | 81 | 1006.9 |
| 20260831103135 | 63 | 258 | 4.0 | 13.0 | 0.00 | 0.30 | 0.00 | 81 | 1006.8 |
| 20260831101558 | 62 | 297 | 6.0 | 14.0 | 0.00 | 0.30 | 0.00 | 85 | 1006.7 |
| 20260831100056 | 61 | 258 | 3.0 | 10.0 | 0.00 | 0.30 | 0.00 | 88 | 1006.6 |
| 20260831094549 | 59 | 240 | 4.0 | 10.0 | 0.00 | 0.33 | 0.00 | 91 | 1006.5 |
| 20260831093046 | 59 | 285 | 3.0 | 10.0 | 0.00 | 0.33 | 0.00 | 91 | 1006.3 |
| 20260831091533 | 58 | 248 | 3.0 | 9.0 | 0.00 | 0.33 | 0.00 | 92 | 1006.1 |
| 20260831090012 | 58 | 238 | 3.0 | 8.0 | 0.00 | 0.33 | 0.00 | 92 | 1005.9 |
| 20260831084512 | 58 | 242 | 3.0 | 10.0 | 0.00 | 0.35 | 0.00 | 93 | 1005.7 |
| 20260831083002 | 58 | 311 | 4.0 | 9.0 | 0.00 | 0.35 | 0.00 | 93 | 1005.6 |
| 20260831081510 | 57 | 275 | 3.0 | 10.0 | 0.00 | 0.35 | 0.00 | 94 | 1005.5 |
| 20260831080012 | 57 | 248 | 4.0 | 10.0 | 0.00 | 0.35 | 0.00 | 95 | 1005.2 |
| 20260831074505 | 56 | 266 | 4.0 | 9.0 | 0.00 | 0.35 | 0.00 | 95 | 1005.1 |
| 20260831073116 | 56 | 224 | 3.0 | 11.0 | 0.00 | 0.35 | 0.00 | 96 | 1004.9 |
| 20260831071510 | 56 | 284 | 3.0 | 11.0 | 0.00 | 0.35 | 0.00 | 96 | 1004.7 |
| 20260831070123 | 56 | 267 | 4.0 | 11.0 | 0.00 | 0.35 | 0.00 | 96 | 1004.6 |
| 20260831064502 | 55 | 302 | 3.0 | 8.0 | 0.00 | 0.35 | 0.00 | 96 | 1004.4 |